Location: Aurora Center
(43.5271°N, 98.5894°W)
Time: 01:21:46
(UTC-05:00)

Transit 4A - All Passes

Search period start: 24 May 2025 00:00
Search period end: 03 June 2025 00:00
Orbit: 865 x 976 km, 66.8° (Epoch: 23 May)

Date Brightness Start Highest point End Pass type
(mag) Time Alt. Az. Time Alt. Az. Time Alt. Az.
24 May - 02:03:03 10° N 02:07:24 20° NE 02:11:39 10° E visible
24 May - 03:48:36 10° NNW 03:54:40 85° ENE 04:00:32 10° SSE visible
24 May - 05:36:50 10° WNW 05:40:06 15° WSW 05:43:20 10° SW daylight
24 May - 17:12:40 10° SE 17:16:19 16° ESE 17:19:57 10° ENE daylight
24 May - 18:55:27 10° SSW 19:01:50 89° NW 19:08:08 10° NNE daylight
24 May - 20:44:15 10° W 20:49:01 22° NW 20:53:44 10° N daylight
25 May - 02:11:37 10° NNW 02:16:36 26° NE 02:21:27 10° E visible
25 May - 03:57:29 10° NW 04:03:28 67° WSW 04:09:14 10° SSE visible
25 May - 17:19:57 10° SSE 17:24:52 24° ESE 17:29:43 10° NE daylight
25 May - 19:04:23 10° SW 19:10:42 65° NW 19:16:56 10° NNE daylight
25 May - 20:54:18 10° WNW 20:58:16 17° NW 21:02:13 10° N daylight
26 May - 00:36:16 10° NNE 00:37:21 10° NNE 00:38:25 10° NNE visible
26 May - 02:20:14 10° NNW 02:25:43 34° NE 02:31:02 10° ESE visible
26 May - 04:06:29 10° NW 04:12:10 46° WSW 04:17:42 10° S visible
26 May - 17:27:49 10° S 17:33:28 35° ESE 17:39:03 10° NE daylight
26 May - 19:13:33 10° SW 19:19:39 47° NW 19:25:40 10° NNE daylight
26 May - 21:04:40 10° WNW 21:07:37 13° NNW 21:10:33 10° N daylight
27 May - 00:44:03 10° N 00:46:46 13° NNE 00:49:27 10° NE visible
27 May - 02:28:55 10° NNW 02:34:44 47° NE 02:40:22 10° SE visible
27 May - 04:15:40 10° NW 04:20:49 31° WSW 04:25:51 10° S visible
27 May - 17:36:03 10° S 17:42:09 50° ESE 17:48:10 10° NE daylight
27 May - 19:22:57 10° WSW 19:28:41 35° NW 19:34:20 10° NNE daylight
27 May - 21:15:36 10° NW 21:17:02 11° NNW 21:18:29 10° N daylight
28 May - 00:52:23 10° N 00:56:07 16° NNE 00:59:47 10° ENE visible
28 May - 02:37:39 10° NNW 02:43:40 66° NE 02:49:29 10° SE visible
28 May - 04:25:06 10° WNW 04:29:22 21° WSW 04:33:35 10° SSW visible
28 May - 16:03:46 10° ESE 16:05:37 11° E 16:07:28 10° E daylight
28 May - 17:44:34 10° SSW 17:50:54 72° ESE 17:57:08 10° NE daylight
28 May - 19:32:35 10° W 19:37:48 26° NW 19:42:58 10° NNE daylight
29 May - 01:00:52 10° N 01:05:22 21° NE 01:09:46 10° E visible
29 May - 02:46:29 10° NNW 02:52:31 88° WSW 02:58:22 10° SSE visible
29 May - 04:35:09 10° WNW 04:37:52 13° WSW 04:40:35 10° SW visible
29 May - 16:10:04 10° SE 16:14:06 18° ESE 16:18:07 10° ENE daylight
29 May - 17:53:20 10° SSW 17:59:43 82° WNW 18:06:00 10° NNE daylight
29 May - 19:42:26 10° W 19:47:00 20° NW 19:51:30 10° N daylight
30 May - 01:09:26 10° NNW 01:14:33 28° NE 01:19:32 10° ESE visible
30 May - 02:55:24 10° NW 03:01:17 61° WSW 03:07:01 10° SSE visible
30 May - 16:17:33 10° SSE 16:22:40 26° ESE 16:27:45 10° NE daylight
30 May - 18:02:21 10° SW 18:08:37 59° NW 18:14:47 10° NNE daylight
30 May - 19:52:34 10° WNW 19:56:16 16° NNW 19:59:57 10° N daylight
30 May - 23:33:47 10° N 23:35:22 11° NNE 23:36:58 10° NE visible
31 May - 01:18:04 10° NNW 01:23:38 37° NE 01:29:02 10° ESE visible
31 May - 03:04:26 10° NW 03:09:59 41° WSW 03:15:24 10° S visible
31 May - 16:25:31 10° S 16:31:18 38° ESE 16:37:00 10° NE daylight
31 May - 18:11:34 10° WSW 18:17:35 43° NW 18:23:30 10° NNE daylight
31 May - 20:03:02 10° NW 20:05:38 13° NNW 20:08:13 10° N daylight
31 May - 23:41:47 10° N 23:44:46 14° NNE 23:47:43 10° ENE visible
01 Jun - 01:26:46 10° NNW 01:32:38 51° NE 01:38:18 10° SE visible
01 Jun - 03:13:39 10° NW 03:18:36 28° WSW 03:23:27 10° SSW visible
01 Jun - 16:33:49 10° S 16:39:59 55° ESE 16:46:05 10° NE daylight
01 Jun - 18:21:01 10° WSW 18:26:38 32° NW 18:32:09 10° NNE daylight
01 Jun - 20:14:31 10° NNW 20:15:04 10° NNW 20:15:38 10° NNW daylight
01 Jun - 23:50:10 10° N 23:54:05 17° NE 23:57:57 10° ENE visible
02 Jun - 01:35:32 10° NNW 01:41:33 72° ENE 01:47:22 10° SE visible
02 Jun - 03:23:12 10° WNW 03:27:09 19° WSW 03:31:03 10° SSW visible
02 Jun - 15:00:45 10° SE 15:03:24 13° E 15:06:02 10° ENE daylight
02 Jun - 16:42:24 10° SSW 16:48:45 78° ESE 16:55:01 10° NNE daylight
02 Jun - 18:30:42 10° W 18:35:46 24° NW 18:40:45 10° NNE daylight
